owner,sensor,date,latitude,longitude,vertical_datum,sea_water_practical_salinity,qcFlag 
SCCF RECON,ioos:station:SCCF:16:1,2011-12-01T00:00:00Z,26.4345,-81.9647,2.645,33.9,1111122 
SCCF RECON,ioos:station:SCCF:16:1,2011-12-01T01:00:00Z,26.4345,-81.9647,2.538,33.9,1111122 
SCCF RECON,ioos:station:SCCF:16:1,2011-12-01T02:00:00Z,26.4345,-81.9647,2.489,33.44,1111122 
SCCF RECON,ioos:station:SCCF:16:1,2011-12-01T03:00:00Z,26.4345,-81.9647,2.449,32.65,1111122 
SCCF RECON,ioos:station:SCCF:16:1,2011-12-01T04:00:00Z,26.4345,-81.9647,2.425,32.07,1111122 
SCCF RECON,ioos:station:SCCF:16:1,2011-12-01T05:00:00Z,26.4345,-81.9647,2.46,31.91,1111122 
SCCF RECON,ioos:station:SCCF:16:1,2011-12-01T06:00:00Z,26.4345,-81.9647,2.522,31.9,1111122 
SCCF RECON,ioos:station:SCCF:16:1,2011-12-01T07:00:00Z,26.4345,-81.9647,2.583,31.98,1111122 
SCCF RECON,ioos:station:SCCF:16:1,2011-12-01T08:00:00Z,26.4345,-81.9647,2.635,32.12,1111122 
SCCF RECON,ioos:station:SCCF:16:1,2011-12-01T09:00:00Z,26.4345,-81.9647,2.626,32.36,1111122 
SCCF RECON,ioos:station:SCCF:16:1,2011-12-01T10:00:00Z,26.4345,-81.9647,2.63,32.52,1111122 
SCCF RECON,ioos:station:SCCF:16:1,2011-12-01T11:00:00Z,26.4345,-81.9647,2.571,32.52,1111122 
SCCF RECON,ioos:station:SCCF:16:1,2011-12-01T12:00:00Z,26.4345,-81.9647,2.468,32.39,1111122 
SCCF RECON,ioos:station:SCCF:16:1,2011-12-01T13:00:00Z,26.4345,-81.9647,2.375,32.21,1111122 
SCCF RECON,ioos:station:SCCF:16:1,2011-12-01T14:00:00Z,26.4345,-81.9647,2.279,31.18,1111122 
SCCF RECON,ioos:station:SCCF:16:1,2011-12-01T15:00:00Z,26.4345,-81.9647,2.216,30.73,1111122 
SCCF RECON,ioos:station:SCCF:16:1,2011-12-01T16:00:00Z,26.4345,-81.9647,2.211,30.18,1111122 
SCCF RECON,ioos:station:SCCF:16:1,2011-12-01T17:00:00Z,26.4345,-81.9647,2.25,30.15,1111122 
SCCF RECON,ioos:station:SCCF:16:1,2011-12-01T18:00:00Z,26.4345,-81.9647,2.328,30.1,1111122 
SCCF RECON,ioos:station:SCCF:16:1,2011-12-01T19:00:00Z,26.4345,-81.9647,2.454,30.29,1111122 
SCCF RECON,ioos:station:SCCF:16:1,2011-12-01T20:00:00Z,26.4345,-81.9647,2.578,31.74,1111122 
SCCF RECON,ioos:station:SCCF:16:1,2011-12-01T21:00:00Z,26.4345,-81.9647,2.643,32.71,1111122 
SCCF RECON,ioos:station:SCCF:16:1,2011-12-01T22:00:00Z,26.4345,-81.9647,2.662,33.31,1111122 
SCCF RECON,ioos:station:SCCF:16:1,2011-12-01T23:00:00Z,26.4345,-81.9647,2.68,33.44,1111122 
SCCF RECON,ioos:station:SCCF:16:1,2011-12-02T00:00:00Z,26.4345,-81.9647,2.651,33.51,1111122 
SCCF RECON,ioos:station:SCCF:16:1,2011-12-02T01:00:00Z,26.4345,-81.9647,2.563,33.59,1111122 
SCCF RECON,ioos:station:SCCF:16:1,2011-12-02T02:00:00Z,26.4345,-81.9647,2.454,33.09,1111122 
SCCF RECON,ioos:station:SCCF:16:1,2011-12-02T03:00:00Z,26.4345,-81.9647,2.402,33.13,1111122 
SCCF RECON,ioos:station:SCCF:16:1,2011-12-02T04:00:00Z,26.4345,-81.9647,2.371,32.55,1111122 
SCCF RECON,ioos:station:SCCF:16:1,2011-12-02T05:00:00Z,26.4345,-81.9647,2.357,31.29,1111122 
SCCF RECON,ioos:station:SCCF:16:1,2011-12-02T06:00:00Z,26.4345,-81.9647,2.393,30.64,1111122 
SCCF RECON,ioos:station:SCCF:16:1,2011-12-02T07:00:00Z,26.4345,-81.9647,2.449,31.87,1111122 
SCCF RECON,ioos:station:SCCF:16:1,2011-12-02T08:00:00Z,26.4345,-81.9647,2.481,31.13,1111122 
SCCF RECON,ioos:station:SCCF:16:1,2011-12-02T09:00:00Z,26.4345,-81.9647,2.511,31.14,1111122 
SCCF RECON,ioos:station:SCCF:16:1,2011-12-02T10:00:00Z,26.4345,-81.9647,2.555,31.43,1111122 
SCCF RECON,ioos:station:SCCF:16:1,2011-12-02T11:00:00Z,26.4345,-81.9647,2.58,31.76,1111122 
SCCF RECON,ioos:station:SCCF:16:1,2011-12-02T12:00:00Z,26.4345,-81.9647,2.567,32.18,1111122 
SCCF RECON,ioos:station:SCCF:16:1,2011-12-02T13:00:00Z,26.4345,-81.9647,2.503,32.66,1111122 
SCCF RECON,ioos:station:SCCF:16:1,2011-12-02T14:00:00Z,26.4345,-81.9647,2.429,33.0,1111122 
SCCF RECON,ioos:station:SCCF:16:1,2011-12-02T15:00:00Z,26.4345,-81.9647,2.365,32.6,1111122 
SCCF RECON,ioos:station:SCCF:16:1,2011-12-02T16:00:00Z,26.4345,-81.9647,2.358,30.76,1111122 
SCCF RECON,ioos:station:SCCF:16:1,2011-12-02T17:00:00Z,26.4345,-81.9647,2.349,30.66,1111122 
SCCF RECON,ioos:station:SCCF:16:1,2011-12-02T18:00:00Z,26.4345,-81.9647,2.345,31.34,1111122 
SCCF RECON,ioos:station:SCCF:16:1,2011-12-02T19:00:00Z,26.4345,-81.9647,2.371,31.65,1111122 
SCCF RECON,ioos:station:SCCF:16:1,2011-12-02T20:00:00Z,26.4345,-81.9647,2.442,31.44,1111122 
SCCF RECON,ioos:station:SCCF:16:1,2011-12-02T21:00:00Z,26.4345,-81.9647,2.578,31.68,1111122 
SCCF RECON,ioos:station:SCCF:16:1,2011-12-02T22:00:00Z,26.4345,-81.9647,2.646,32.03,1111122 
SCCF RECON,ioos:station:SCCF:16:1,2011-12-02T23:00:00Z,26.4345,-81.9647,2.727,32.66,1111122 
SCCF RECON,ioos:station:SCCF:16:1,2011-12-03T00:00:00Z,26.4345,-81.9647,2.767,33.21,1111122 
SCCF RECON,ioos:station:SCCF:16:1,2011-12-03T01:00:00Z,26.4345,-81.9647,2.689,33.62,1111122 
SCCF RECON,ioos:station:SCCF:16:1,2011-12-03T02:00:00Z,26.4345,-81.9647,2.533,33.77,1111122 
SCCF RECON,ioos:station:SCCF:16:1,2011-12-03T03:00:00Z,26.4345,-81.9647,2.449,33.65,1111122 
SCCF RECON,ioos:station:SCCF:16:1,2011-12-03T04:00:00Z,26.4345,-81.9647,2.389,33.34,1111122 
SCCF RECON,ioos:station:SCCF:16:1,2011-12-03T05:00:00Z,26.4345,-81.9647,2.314,32.74,1111122 
SCCF RECON,ioos:station:SCCF:16:1,2011-12-03T06:00:00Z,26.4345,-81.9647,2.275,32.45,1111122 
SCCF RECON,ioos:station:SCCF:16:1,2011-12-03T07:00:00Z,26.4345,-81.9647,2.286,31.71,1111122 
SCCF RECON,ioos:station:SCCF:16:1,2011-12-03T08:00:00Z,26.4345,-81.9647,2.336,30.75,1111122 
SCCF RECON,ioos:station:SCCF:16:1,2011-12-03T09:00:00Z,26.4345,-81.9647,2.439,31.3,1111122 
SCCF RECON,ioos:station:SCCF:16:1,2011-12-03T10:00:00Z,26.4345,-81.9647,2.519,31.27,1111122 
SCCF RECON,ioos:station:SCCF:16:1,2011-12-03T11:00:00Z,26.4345,-81.9647,2.578,32.2,1111122 
SCCF RECON,ioos:station:SCCF:16:1,2011-12-03T12:00:00Z,26.4345,-81.9647,2.617,32.75,1111122 
SCCF RECON,ioos:station:SCCF:16:1,2011-12-03T13:00:00Z,26.4345,-81.9647,2.602,32.84,1111122 
SCCF RECON,ioos:station:SCCF:16:1,2011-12-03T14:00:00Z,26.4345,-81.9647,2.542,32.81,1111122 
SCCF RECON,ioos:station:SCCF:16:1,2011-12-03T15:00:00Z,26.4345,-81.9647,2.508,32.8,1111122 
SCCF RECON,ioos:station:SCCF:16:1,2011-12-03T16:00:00Z,26.4345,-81.9647,2.46,32.8,1111122 
SCCF RECON,ioos:station:SCCF:16:1,2011-12-03T17:00:00Z,26.4345,-81.9647,2.441,33.22,1111122 
SCCF RECON,ioos:station:SCCF:16:1,2011-12-03T18:00:00Z,26.4345,-81.9647,2.426,33.38,1111122 
SCCF RECON,ioos:station:SCCF:16:1,2011-12-03T19:00:00Z,26.4345,-81.9647,2.449,33.41,1111122 
SCCF RECON,ioos:station:SCCF:16:1,2011-12-03T20:00:00Z,26.4345,-81.9647,2.58,33.61,1111122 
SCCF RECON,ioos:station:SCCF:16:1,2011-12-03T21:00:00Z,26.4345,-81.9647,2.712,33.69,1111122 
SCCF RECON,ioos:station:SCCF:16:1,2011-12-03T22:00:00Z,26.4345,-81.9647,2.77,33.68,1111122 
SCCF RECON,ioos:station:SCCF:16:1,2011-12-03T23:00:00Z,26.4345,-81.9647,2.77,33.62,1111122 
SCCF RECON,ioos:station:SCCF:16:1,2011-12-04T00:00:00Z,26.4345,-81.9647,2.803,33.61,1111122 
SCCF RECON,ioos:station:SCCF:16:1,2011-12-04T01:00:00Z,26.4345,-81.9647,2.788,33.61,1111122 
SCCF RECON,ioos:station:SCCF:16:1,2011-12-04T02:00:00Z,26.4345,-81.9647,2.758,33.62,1111122 
SCCF RECON,ioos:station:SCCF:16:1,2011-12-04T03:00:00Z,26.4345,-81.9647,2.644,33.61,1111122 
SCCF RECON,ioos:station:SCCF:16:1,2011-12-04T04:00:00Z,26.4345,-81.9647,2.52,33.58,1111122 
SCCF RECON,ioos:station:SCCF:16:1,2011-12-04T05:00:00Z,26.4345,-81.9647,2.404,33.63,1111122 
SCCF RECON,ioos:station:SCCF:16:1,2011-12-04T06:00:00Z,26.4345,-81.9647,2.303,33.87,1111122 
SCCF RECON,ioos:station:SCCF:16:1,2011-12-04T07:00:00Z,26.4345,-81.9647,2.285,33.49,1111122 
SCCF RECON,ioos:station:SCCF:16:1,2011-12-04T08:00:00Z,26.4345,-81.9647,2.325,33.47,1111122 
SCCF RECON,ioos:station:SCCF:16:1,2011-12-04T09:00:00Z,26.4345,-81.9647,2.43,33.2,1111122 
SCCF RECON,ioos:station:SCCF:16:1,2011-12-04T10:00:00Z,26.4345,-81.9647,2.548,33.43,1111122 
SCCF RECON,ioos:station:SCCF:16:1,2011-12-04T11:00:00Z,26.4345,-81.9647,2.604,33.65,1111122 
SCCF RECON,ioos:station:SCCF:16:1,2011-12-04T12:00:00Z,26.4345,-81.9647,2.613,33.87,1111122 
SCCF RECON,ioos:station:SCCF:16:1,2011-12-04T13:00:00Z,26.4345,-81.9647,2.641,33.81,1111122 
SCCF RECON,ioos:station:SCCF:16:1,2011-12-04T14:00:00Z,26.4345,-81.9647,2.627,33.83,1111122 
SCCF RECON,ioos:station:SCCF:16:1,2011-12-04T15:00:00Z,26.4345,-81.9647,2.596,33.75,1111122 
SCCF RECON,ioos:station:SCCF:16:1,2011-12-04T16:00:00Z,26.4345,-81.9647,2.532,33.78,1111122 
SCCF RECON,ioos:station:SCCF:16:1,2011-12-04T17:00:00Z,26.4345,-81.9647,2.517,33.79,1111122 
SCCF RECON,ioos:station:SCCF:16:1,2011-12-04T18:00:00Z,26.4345,-81.9647,2.501,33.79,1111122 
SCCF RECON,ioos:station:SCCF:16:1,2011-12-04T19:00:00Z,26.4345,-81.9647,2.459,33.78,1111122 
SCCF RECON,ioos:station:SCCF:16:1,2011-12-04T20:00:00Z,26.4345,-81.9647,2.494,33.75,1111122 
SCCF RECON,ioos:station:SCCF:16:1,2011-12-04T21:00:00Z,26.4345,-81.9647,2.568,33.68,1111122 
SCCF RECON,ioos:station:SCCF:16:1,2011-12-04T22:00:00Z,26.4345,-81.9647,2.687,33.63,1111122 
SCCF RECON,ioos:station:SCCF:16:1,2011-12-04T23:00:00Z,26.4345,-81.9647,2.776,33.67,1111122 
SCCF RECON,ioos:station:SCCF:16:1,2011-12-05T00:00:00Z,26.4345,-81.9647,2.826,33.76,1111122 
SCCF RECON,ioos:station:SCCF:16:1,2011-12-05T01:00:00Z,26.4345,-81.9647,2.835,33.82,1111122 
SCCF RECON,ioos:station:SCCF:16:1,2011-12-05T02:00:00Z,26.4345,-81.9647,2.819,33.86,1111122 
SCCF RECON,ioos:station:SCCF:16:1,2011-12-05T03:00:00Z,26.4345,-81.9647,2.738,33.86,1111122 
SCCF RECON,ioos:station:SCCF:16:1,2011-12-05T04:00:00Z,26.4345,-81.9647,2.604,33.83,1111122 
SCCF RECON,ioos:station:SCCF:16:1,2011-12-05T05:00:00Z,26.4345,-81.9647,2.473,33.77,1111122 
SCCF RECON,ioos:station:SCCF:16:1,2011-12-05T06:00:00Z,26.4345,-81.9647,2.333,33.84,1111122 
SCCF RECON,ioos:station:SCCF:16:1,2011-12-05T07:00:00Z,26.4345,-81.9647,2.243,33.87,1111122 
SCCF RECON,ioos:station:SCCF:16:1,2011-12-05T08:00:00Z,26.4345,-81.9647,2.242,33.92,1111122 
SCCF RECON,ioos:station:SCCF:16:1,2011-12-05T09:00:00Z,26.4345,-81.9647,2.239,33.72,1111122 
SCCF RECON,ioos:station:SCCF:16:1,2011-12-05T10:00:00Z,26.4345,-81.9647,2.373,33.58,1111122 
SCCF RECON,ioos:station:SCCF:16:1,2011-12-05T11:00:00Z,26.4345,-81.9647,2.464,33.61,1111122 
SCCF RECON,ioos:station:SCCF:16:1,2011-12-05T12:00:00Z,26.4345,-81.9647,2.578,33.69,1111122 
SCCF RECON,ioos:station:SCCF:16:1,2011-12-05T13:00:00Z,26.4345,-81.9647,2.668,33.84,1111122 
SCCF RECON,ioos:station:SCCF:16:1,2011-12-05T14:00:00Z,26.4345,-81.9647,2.715,33.77,1111122 
SCCF RECON,ioos:station:SCCF:16:1,2011-12-05T15:00:00Z,26.4345,-81.9647,2.702,33.73,1111122 
SCCF RECON,ioos:station:SCCF:16:1,2011-12-05T16:00:00Z,26.4345,-81.9647,2.676,33.78,1111122 
SCCF RECON,ioos:station:SCCF:16:1,2011-12-05T17:00:00Z,26.4345,-81.9647,2.622,33.85,1111122 
SCCF RECON,ioos:station:SCCF:16:1,2011-12-05T18:00:00Z,26.4345,-81.9647,2.593,33.86,1111122 
SCCF RECON,ioos:station:SCCF:16:1,2011-12-05T19:00:00Z,26.4345,-81.9647,2.569,33.85,1111122 
SCCF RECON,ioos:station:SCCF:16:1,2011-12-05T20:00:00Z,26.4345,-81.9647,2.56,33.85,1111122 
SCCF RECON,ioos:station:SCCF:16:1,2011-12-05T21:00:00Z,26.4345,-81.9647,2.604,33.86,1111122 
SCCF RECON,ioos:station:SCCF:16:1,2011-12-05T22:00:00Z,26.4345,-81.9647,2.673,33.86,1111122 
SCCF RECON,ioos:station:SCCF:16:1,2011-12-05T23:00:00Z,26.4345,-81.9647,2.735,33.85,1111122 
SCCF RECON,ioos:station:SCCF:16:1,2011-12-06T00:00:00Z,26.4345,-81.9647,2.791,33.85,1111122 
SCCF RECON,ioos:station:SCCF:16:1,2011-12-06T01:00:00Z,26.4345,-81.9647,2.84,33.93,1111122 
SCCF RECON,ioos:station:SCCF:16:1,2011-12-06T02:00:00Z,26.4345,-81.9647,2.857,33.95,1111122 
SCCF RECON,ioos:station:SCCF:16:1,2011-12-06T03:00:00Z,26.4345,-81.9647,2.824,33.97,1111122 
SCCF RECON,ioos:station:SCCF:16:1,2011-12-06T04:00:00Z,26.4345,-81.9647,2.725,33.96,1111122 
SCCF RECON,ioos:station:SCCF:16:1,2011-12-06T05:00:00Z,26.4345,-81.9647,2.599,33.97,1111122 
SCCF RECON,ioos:station:SCCF:16:1,2011-12-06T06:00:00Z,26.4345,-81.9647,2.412,33.96,1111122 
SCCF RECON,ioos:station:SCCF:16:1,2011-12-06T07:00:00Z,26.4345,-81.9647,2.265,33.93,1111122 
SCCF RECON,ioos:station:SCCF:16:1,2011-12-06T08:00:00Z,26.4345,-81.9647,2.146,34.02,1111122 
SCCF RECON,ioos:station:SCCF:16:1,2011-12-06T09:00:00Z,26.4345,-81.9647,2.121,33.82,1111122 
SCCF RECON,ioos:station:SCCF:16:1,2011-12-06T10:00:00Z,26.4345,-81.9647,2.237,33.6,1111122 
SCCF RECON,ioos:station:SCCF:16:1,2011-12-06T11:00:00Z,26.4345,-81.9647,2.362,33.3,1111122 
SCCF RECON,ioos:station:SCCF:16:1,2011-12-06T12:00:00Z,26.4345,-81.9647,2.486,33.44,1111122 
SCCF RECON,ioos:station:SCCF:16:1,2011-12-06T13:00:00Z,26.4345,-81.9647,2.573,33.73,1111122 
SCCF RECON,ioos:station:SCCF:16:1,2011-12-06T14:00:00Z,26.4345,-81.9647,2.651,33.8,1111122 
SCCF RECON,ioos:station:SCCF:16:1,2011-12-06T15:00:00Z,26.4345,-81.9647,2.708,33.9,1111122 
SCCF RECON,ioos:station:SCCF:16:1,2011-12-06T16:00:00Z,26.4345,-81.9647,2.728,33.96,1111122 
SCCF RECON,ioos:station:SCCF:16:1,2011-12-06T17:00:00Z,26.4345,-81.9647,2.687,33.97,1111122 
SCCF RECON,ioos:station:SCCF:16:1,2011-12-06T18:00:00Z,26.4345,-81.9647,2.636,33.92,1111122 
SCCF RECON,ioos:station:SCCF:16:1,2011-12-06T19:00:00Z,26.4345,-81.9647,2.59,33.97,1111122 
SCCF RECON,ioos:station:SCCF:16:1,2011-12-06T20:00:00Z,26.4345,-81.9647,2.555,33.94,1111122 
SCCF RECON,ioos:station:SCCF:16:1,2011-12-06T21:00:00Z,26.4345,-81.9647,2.543,33.95,1111122 
SCCF RECON,ioos:station:SCCF:16:1,2011-12-06T22:00:00Z,26.4345,-81.9647,2.596,33.93,1111122 
SCCF RECON,ioos:station:SCCF:16:1,2011-12-06T23:00:00Z,26.4345,-81.9647,2.683,33.95,1111122 
SCCF RECON,ioos:station:SCCF:16:1,2011-12-07T00:00:00Z,26.4345,-81.9647,2.792,33.98,1111122 
SCCF RECON,ioos:station:SCCF:16:1,2011-12-07T01:00:00Z,26.4345,-81.9647,2.838,33.97,1111122 
SCCF RECON,ioos:station:SCCF:16:1,2011-12-07T02:00:00Z,26.4345,-81.9647,2.873,33.94,1111122 
SCCF RECON,ioos:station:SCCF:16:1,2011-12-07T03:00:00Z,26.4345,-81.9647,2.873,33.95,1111122 
SCCF RECON,ioos:station:SCCF:16:1,2011-12-07T04:00:00Z,26.4345,-81.9647,2.823,33.97,1111122 
SCCF RECON,ioos:station:SCCF:16:1,2011-12-07T05:00:00Z,26.4345,-81.9647,2.682,33.98,1111122 
SCCF RECON,ioos:station:SCCF:16:1,2011-12-07T06:00:00Z,26.4345,-81.9647,2.489,34.0,1111122 
SCCF RECON,ioos:station:SCCF:16:1,2011-12-07T07:00:00Z,26.4345,-81.9647,2.32,33.95,1111122 
SCCF RECON,ioos:station:SCCF:16:1,2011-12-07T08:00:00Z,26.4345,-81.9647,2.171,33.83,1111122 
SCCF RECON,ioos:station:SCCF:16:1,2011-12-07T09:00:00Z,26.4345,-81.9647,2.064,33.67,1111122 
SCCF RECON,ioos:station:SCCF:16:1,2011-12-07T10:00:00Z,26.4345,-81.9647,2.062,33.26,1111122 
SCCF RECON,ioos:station:SCCF:16:1,2011-12-07T11:00:00Z,26.4345,-81.9647,2.188,32.63,1111122 
SCCF RECON,ioos:station:SCCF:16:1,2011-12-07T12:00:00Z,26.4345,-81.9647,2.369,32.84,1111122 
SCCF RECON,ioos:station:SCCF:16:1,2011-12-07T13:00:00Z,26.4345,-81.9647,2.52,33.68,1111122 
SCCF RECON,ioos:station:SCCF:16:1,2011-12-07T14:00:00Z,26.4345,-81.9647,2.616,33.78,1111122 
SCCF RECON,ioos:station:SCCF:16:1,2011-12-07T15:00:00Z,26.4345,-81.9647,2.704,33.85,1111122 
SCCF RECON,ioos:station:SCCF:16:1,2011-12-07T16:00:00Z,26.4345,-81.9647,2.746,33.91,1111122 
SCCF RECON,ioos:station:SCCF:16:1,2011-12-07T17:00:00Z,26.4345,-81.9647,2.696,33.9,1111122 
SCCF RECON,ioos:station:SCCF:16:1,2011-12-07T18:00:00Z,26.4345,-81.9647,2.645,33.87,1111122 
SCCF RECON,ioos:station:SCCF:16:1,2011-12-07T19:00:00Z,26.4345,-81.9647,2.595,33.86,1111122 
SCCF RECON,ioos:station:SCCF:16:1,2011-12-07T20:00:00Z,26.4345,-81.9647,2.545,33.84,1111122 
SCCF RECON,ioos:station:SCCF:16:1,2011-12-07T21:00:00Z,26.4345,-81.9647,2.519,33.8,1111122 
SCCF RECON,ioos:station:SCCF:16:1,2011-12-07T22:00:00Z,26.4345,-81.9647,2.535,33.81,1111122 
SCCF RECON,ioos:station:SCCF:16:1,2011-12-07T23:00:00Z,26.4345,-81.9647,2.634,34.04,1111122 
SCCF RECON,ioos:station:SCCF:16:1,2011-12-08T00:00:00Z,26.4345,-81.9647,2.799,34.01,1111122 
SCCF RECON,ioos:station:SCCF:16:1,2011-12-08T01:00:00Z,26.4345,-81.9647,2.817,34.06,1111122 
SCCF RECON,ioos:station:SCCF:16:1,2011-12-08T02:00:00Z,26.4345,-81.9647,2.73,34.07,1111122 
SCCF RECON,ioos:station:SCCF:16:1,2011-12-08T03:00:00Z,26.4345,-81.9647,2.605,34.02,1111122 
SCCF RECON,ioos:station:SCCF:16:1,2011-12-08T04:00:00Z,26.4345,-81.9647,2.525,33.92,1111122 
SCCF RECON,ioos:station:SCCF:16:1,2011-12-08T05:00:00Z,26.4345,-81.9647,2.514,33.66,1111122 
SCCF RECON,ioos:station:SCCF:16:1,2011-12-08T06:00:00Z,26.4345,-81.9647,2.379,33.34,1111122 
SCCF RECON,ioos:station:SCCF:16:1,2011-12-08T07:00:00Z,26.4345,-81.9647,2.199,33.23,1111122 
SCCF RECON,ioos:station:SCCF:16:1,2011-12-08T08:00:00Z,26.4345,-81.9647,1.954,31.7,1111122 
SCCF RECON,ioos:station:SCCF:16:1,2011-12-08T09:00:00Z,26.4345,-81.9647,1.81,30.97,1111122 
SCCF RECON,ioos:station:SCCF:16:1,2011-12-08T10:00:00Z,26.4345,-81.9647,1.72,30.45,1111122 
SCCF RECON,ioos:station:SCCF:16:1,2011-12-08T11:00:00Z,26.4345,-81.9647,1.807,30.3,1111122 
SCCF RECON,ioos:station:SCCF:16:1,2011-12-08T12:00:00Z,26.4345,-81.9647,1.96,29.25,1111122 
SCCF RECON,ioos:station:SCCF:16:1,2011-12-08T13:00:00Z,26.4345,-81.9647,2.157,29.69,1111122 
SCCF RECON,ioos:station:SCCF:16:1,2011-12-08T14:00:00Z,26.4345,-81.9647,2.33,30.1,1111122 
SCCF RECON,ioos:station:SCCF:16:1,2011-12-08T15:00:00Z,26.4345,-81.9647,2.48,30.63,1111122 
SCCF RECON,ioos:station:SCCF:16:1,2011-12-08T16:00:00Z,26.4345,-81.9647,2.573,31.57,1111122 
SCCF RECON,ioos:station:SCCF:16:1,2011-12-08T17:00:00Z,26.4345,-81.9647,2.625,32.13,1111122 
SCCF RECON,ioos:station:SCCF:16:1,2011-12-08T18:00:00Z,26.4345,-81.9647,2.578,32.28,1111122 
SCCF RECON,ioos:station:SCCF:16:1,2011-12-08T19:00:00Z,26.4345,-81.9647,2.536,33.14,1111122 
SCCF RECON,ioos:station:SCCF:16:1,2011-12-08T20:00:00Z,26.4345,-81.9647,2.52,33.35,1111122 
SCCF RECON,ioos:station:SCCF:16:1,2011-12-08T21:00:00Z,26.4345,-81.9647,2.543,33.44,1111122 
SCCF RECON,ioos:station:SCCF:16:1,2011-12-08T22:00:00Z,26.4345,-81.9647,2.572,33.35,1111122 
SCCF RECON,ioos:station:SCCF:16:1,2011-12-08T23:00:00Z,26.4345,-81.9647,2.625,33.66,1111122 
SCCF RECON,ioos:station:SCCF:16:1,2011-12-09T00:00:00Z,26.4345,-81.9647,2.708,33.86,1111122 
SCCF RECON,ioos:station:SCCF:16:1,2011-12-09T01:00:00Z,26.4345,-81.9647,2.762,33.34,1111122 
SCCF RECON,ioos:station:SCCF:16:1,2011-12-09T02:00:00Z,26.4345,-81.9647,2.833,33.51,1111122 
SCCF RECON,ioos:station:SCCF:16:1,2011-12-09T03:00:00Z,26.4345,-81.9647,2.897,33.61,1111122 
SCCF RECON,ioos:station:SCCF:16:1,2011-12-09T04:00:00Z,26.4345,-81.9647,2.889,33.75,1111122 
SCCF RECON,ioos:station:SCCF:16:1,2011-12-09T05:00:00Z,26.4345,-81.9647,2.796,33.77,1111122 
SCCF RECON,ioos:station:SCCF:16:1,2011-12-09T06:00:00Z,26.4345,-81.9647,2.619,33.94,1111122 
SCCF RECON,ioos:station:SCCF:16:1,2011-12-09T07:00:00Z,26.4345,-81.9647,2.453,33.82,1111122 
SCCF RECON,ioos:station:SCCF:16:1,2011-12-09T08:00:00Z,26.4345,-81.9647,2.247,33.49,1111122 
SCCF RECON,ioos:station:SCCF:16:1,2011-12-09T09:00:00Z,26.4345,-81.9647,2.07,33.09,1111122 
SCCF RECON,ioos:station:SCCF:16:1,2011-12-09T10:00:00Z,26.4345,-81.9647,1.959,32.49,1111122 
SCCF RECON,ioos:station:SCCF:16:1,2011-12-09T11:00:00Z,26.4345,-81.9647,1.914,30.93,1111122 
SCCF RECON,ioos:station:SCCF:16:1,2011-12-09T12:00:00Z,26.4345,-81.9647,2.06,31.27,1111122 
SCCF RECON,ioos:station:SCCF:16:1,2011-12-09T13:00:00Z,26.4345,-81.9647,2.279,31.63,1111122 
SCCF RECON,ioos:station:SCCF:16:1,2011-12-09T14:00:00Z,26.4345,-81.9647,2.451,32.72,1111122 
SCCF RECON,ioos:station:SCCF:16:1,2011-12-09T15:00:00Z,26.4345,-81.9647,2.557,33.17,1111122 
SCCF RECON,ioos:station:SCCF:16:1,2011-12-09T16:00:00Z,26.4345,-81.9647,2.667,33.57,1111122 
SCCF RECON,ioos:station:SCCF:16:1,2011-12-09T17:00:00Z,26.4345,-81.9647,2.718,33.56,1111122 
SCCF RECON,ioos:station:SCCF:16:1,2011-12-09T18:00:00Z,26.4345,-81.9647,2.695,33.78,1111122 
SCCF RECON,ioos:station:SCCF:16:1,2011-12-09T19:00:00Z,26.4345,-81.9647,2.595,33.73,1111122 
SCCF RECON,ioos:station:SCCF:16:1,2011-12-09T20:00:00Z,26.4345,-81.9647,2.539,33.84,1111122 
SCCF RECON,ioos:station:SCCF:16:1,2011-12-09T21:00:00Z,26.4345,-81.9647,2.537,33.6,1111122 
SCCF RECON,ioos:station:SCCF:16:1,2011-12-09T22:00:00Z,26.4345,-81.9647,2.531,33.33,1111122 
SCCF RECON,ioos:station:SCCF:16:1,2011-12-09T23:00:00Z,26.4345,-81.9647,2.537,33.37,1111122 
SCCF RECON,ioos:station:SCCF:16:1,2011-12-10T00:00:00Z,26.4345,-81.9647,2.584,33.24,1111122 
SCCF RECON,ioos:station:SCCF:16:1,2011-12-10T01:00:00Z,26.4345,-81.9647,2.682,33.26,1111122 
SCCF RECON,ioos:station:SCCF:16:1,2011-12-10T02:00:00Z,26.4345,-81.9647,2.769,33.41,1111122 
SCCF RECON,ioos:station:SCCF:16:1,2011-12-10T03:00:00Z,26.4345,-81.9647,2.831,33.56,1111122 
SCCF RECON,ioos:station:SCCF:16:1,2011-12-10T04:00:00Z,26.4345,-81.9647,2.872,33.65,1111122 
SCCF RECON,ioos:station:SCCF:16:1,2011-12-10T05:00:00Z,26.4345,-81.9647,2.837,33.78,1111122 
SCCF RECON,ioos:station:SCCF:16:1,2011-12-10T06:00:00Z,26.4345,-81.9647,2.691,33.77,1111122 
SCCF RECON,ioos:station:SCCF:16:1,2011-12-10T07:00:00Z,26.4345,-81.9647,2.483,33.57,1111122 
SCCF RECON,ioos:station:SCCF:16:1,2011-12-10T08:00:00Z,26.4345,-81.9647,2.283,33.48,1111122 
SCCF RECON,ioos:station:SCCF:16:1,2011-12-10T09:00:00Z,26.4345,-81.9647,2.098,33.13,1111122 
SCCF RECON,ioos:station:SCCF:16:1,2011-12-10T10:00:00Z,26.4345,-81.9647,1.943,32.81,1111122 
SCCF RECON,ioos:station:SCCF:16:1,2011-12-10T11:00:00Z,26.4345,-81.9647,1.894,31.74,1111122 
SCCF RECON,ioos:station:SCCF:16:1,2011-12-10T12:00:00Z,26.4345,-81.9647,1.966,31.78,1111122 
SCCF RECON,ioos:station:SCCF:16:1,2011-12-10T13:00:00Z,26.4345,-81.9647,2.09,31.49,1111122 
SCCF RECON,ioos:station:SCCF:16:1,2011-12-10T14:00:00Z,26.4345,-81.9647,2.306,32.03,1111122 
SCCF RECON,ioos:station:SCCF:16:1,2011-12-10T15:00:00Z,26.4345,-81.9647,2.484,32.51,1111122 
SCCF RECON,ioos:station:SCCF:16:1,2011-12-10T16:00:00Z,26.4345,-81.9647,2.614,33.17,1111122 
SCCF RECON,ioos:station:SCCF:16:1,2011-12-10T17:00:00Z,26.4345,-81.9647,2.72,33.61,1111122 
SCCF RECON,ioos:station:SCCF:16:1,2011-12-10T18:00:00Z,26.4345,-81.9647,2.707,33.89,1111122 
SCCF RECON,ioos:station:SCCF:16:1,2011-12-10T19:00:00Z,26.4345,-81.9647,2.63,33.94,1111122 
SCCF RECON,ioos:station:SCCF:16:1,2011-12-10T20:00:00Z,26.4345,-81.9647,2.566,33.84,1111122 
SCCF RECON,ioos:station:SCCF:16:1,2011-12-10T21:00:00Z,26.4345,-81.9647,2.531,33.84,1111122 
SCCF RECON,ioos:station:SCCF:16:1,2011-12-10T22:00:00Z,26.4345,-81.9647,2.512,33.36,1111122 
SCCF RECON,ioos:station:SCCF:16:1,2011-12-10T23:00:00Z,26.4345,-81.9647,2.471,33.11,1111122 
SCCF RECON,ioos:station:SCCF:16:1,2011-12-11T00:00:00Z,26.4345,-81.9647,2.528,32.86,1111122 
SCCF RECON,ioos:station:SCCF:16:1,2011-12-11T01:00:00Z,26.4345,-81.9647,2.578,32.87,1111122 
SCCF RECON,ioos:station:SCCF:16:1,2011-12-11T02:00:00Z,26.4345,-81.9647,2.698,32.98,1111122 
SCCF RECON,ioos:station:SCCF:16:1,2011-12-11T03:00:00Z,26.4345,-81.9647,2.752,33.1,1111122 
SCCF RECON,ioos:station:SCCF:16:1,2011-12-11T04:00:00Z,26.4345,-81.9647,2.817,33.21,1111122 
SCCF RECON,ioos:station:SCCF:16:1,2011-12-11T05:00:00Z,26.4345,-81.9647,2.847,33.42,1111122 
SCCF RECON,ioos:station:SCCF:16:1,2011-12-11T06:00:00Z,26.4345,-81.9647,2.76,33.49,1111122 
SCCF RECON,ioos:station:SCCF:16:1,2011-12-11T07:00:00Z,26.4345,-81.9647,2.599,33.5,1111122 
SCCF RECON,ioos:station:SCCF:16:1,2011-12-11T08:00:00Z,26.4345,-81.9647,2.387,33.45,1111122 
SCCF RECON,ioos:station:SCCF:16:1,2011-12-11T09:00:00Z,26.4345,-81.9647,2.16,33.22,1111122 
SCCF RECON,ioos:station:SCCF:16:1,2011-12-11T10:00:00Z,26.4345,-81.9647,1.973,32.73,1111122 
SCCF RECON,ioos:station:SCCF:16:1,2011-12-11T11:00:00Z,26.4345,-81.9647,1.85,32.21,1111122 
SCCF RECON,ioos:station:SCCF:16:1,2011-12-11T12:00:00Z,26.4345,-81.9647,1.818,31.18,1111122 
SCCF RECON,ioos:station:SCCF:16:1,2011-12-11T13:00:00Z,26.4345,-81.9647,1.961,31.11,1111122 
SCCF RECON,ioos:station:SCCF:16:1,2011-12-11T14:00:00Z,26.4345,-81.9647,2.156,30.95,1111122 
SCCF RECON,ioos:station:SCCF:16:1,2011-12-11T15:00:00Z,26.4345,-81.9647,2.307,31.35,1111122 
SCCF RECON,ioos:station:SCCF:16:1,2011-12-11T16:00:00Z,26.4345,-81.9647,2.451,31.73,1111122 